Location: Hurstbourne Priors
(51.2000°N, 1.3667°W)
Time: 02:31:57
(UTC+00:00)

Cosmos 1140 Rocket - Pass Details

Date: 09 April 2020
Orbit: 745 x 767 km, 74.1° (Epoch: 25 May)

Event Time Altitude Azimuth Distance (km) Brightness Sun altitude
Rises 20:05:09 0° 198° (SSW) 3,202 6.6 -11.4°
Reaches altitude 10° 20:07:30 10° 197° (SSW) 2,278 5.8 -11.7°
Maximum altitude 20:12:40 78° 112° (ESE) 775 3.4 -12.4°
Drops below altitude 10° 20:17:50 10° 27° (NNE) 2,280 6.0 -13.1°
Sets 20:20:11 0° 26° (NNE) 3,206 6.8 -13.5°
